Overview Statistics Trail Chart Weather Telemetry Raw packets
 

This is the latest recevied weather packets stored in our database for station/object HB9FHL-13. If no packets are shown the sender has not sent any weather packets the latest 10 day(s).

<< 25 26 27 28 29 30 31 >>
Time Temp. Humidity Pressure Rain* Wind** Luminosity Snow
1788523853 26.11° C - 1019.3 hPa 0 mm - - -
1788523553 25° C - 1019.4 hPa 0 mm - - -
1788523256 25.56° C - 1015.9 hPa 0 mm - - -
1788523252 25.56° C - 1015.9 hPa 0 mm - - -
1788522984 25.56° C - 1021.8 hPa 0 mm - - -
1788522983 25.56° C - 1021.8 hPa 0 mm - - -
1788522952 25.56° C - 1021.8 hPa 0 mm - - -
1788522651 26.11° C - 1021.1 hPa 0 mm - - -
1788522351 25.56° C - 1019.3 hPa 0 mm - - -
1788522055 26.11° C - 1012.7 hPa 0 mm - - -
1788522050 26.11° C - 1012.7 hPa 0 mm - - -
1788521753 25.56° C - 1016.9 hPa 0 mm - - -
1788521750 25.56° C - 1016.9 hPa 0 mm - - -
1788521449 25.56° C - 1020.3 hPa 0 mm - - -
1788521148 25° C - 1021.8 hPa 0 mm - - -
1788520847 25° C - 1020.6 hPa 0 mm - - -
1788520551 25° C - 1023.6 hPa 0 mm - - -
1788520547 25° C - 1023.6 hPa 0 mm - - -
1788520246 25° C - 1022.5 hPa 0 mm - - -
1788519946 24.44° C - 1020.6 hPa 0 mm - - -
1788519649 25° C - 1023.1 hPa 0 mm - - -
1788519645 25° C - 1023.1 hPa 0 mm - - -
1788519349 25.56° C - 1016.1 hPa 0 mm - - -
1788519345 25.56° C - 1016.1 hPa 0 mm - - -
1788519049 24.44° C - 1023.1 hPa 0 mm - - -

* Rain since midnight (hover to see other rain measurements)
** Current wind speed in m/s (hover to see current wind gust speed)